Weather Roundup
Issued by NWS Springfield, MO

Home | Current Version | Previous Version | Text Only | Print | Product List | Glossary On
Versions: 1 2 3 4 5 6 7 8 9 10 11 12 13 14 15 16 17 18 19 20 21 22 23 24 25 26 27 28 29 30 31 32 33 34 35 36 37 38 39 40 41 42 43 44 45 46 47 48 49 50
000
NZUS99 KSGF 301407
HRRSGF

HOURLY WEATHER
NATIONAL WEATHER SERVICE SPRINGFIELD MO
900 AM CDT MON MAY 30 2016

......SGF CWA......

CITY           SKY/WX    TMP DP  RH WIND       PRES   REMARKS
SPRINGFIELD    SUNNY     76  64  66 SE6       30.09R
JOPLIN         PTSUNNY   74  65  73 S6        30.08R
WEST PLAINS    SUNNY     75  63  66 E3        30.13R
ROLLA          SUNNY     75  66  73 SW3       30.09F
BRANSON        PTSUNNY   73  66  78 CALM      30.11R

......SURROUNDING SGF CWA......

CITY           SKY/WX    TMP DP  RH WIND       PRES   REMARKS
CHANUTE        CLOUDY    71  65  81 S6        30.05R
PARSONS        PTSUNNY   71  65  81 S5        30.07R
COFFEYVILLE    CLOUDY    70  65  84 S6        30.07R
EMPORIA        CLOUDY    70  65  84 S8        30.05R
GROVE OK       PTSUNNY   72  66  83 S3        30.09R
ROGERS AR        N/A     71  64  78 S3        30.11R
SILOAM SPRINGS CLOUDY    70  59  68 SW8       30.12R
HARRISON AR    MOSUNNY   71  64  78 CALM      30.11R
NEAR YELLVILLE PTSUNNY  N/A N/A N/A CALM      30.07S

......KANSAS AND MISSOURI......

CITY           SKY/WX    TMP DP  RH WIND       PRES   REMARKS
KANSAS CTY INT PTSUNNY   73  66  78 S6        30.05F
DOWNTOWN KC    MOSUNNY   76  66  71 NE6       30.04F
COLUMBIA       SUNNY     76  66  71 SW3       30.08F
SEDALIA        SUNNY     76  67  73 SW3       30.08F
ST JOSEPH      SUNNY     74  65  73 VRB5      30.03F
ST LOUIS       PTSUNNY   80  65  59 W6        30.09S
SPIRIT OF STL  SUNNY     77  67  71 W6        30.08S
KIRKSVILLE     SUNNY     76  66  71 SW3       30.08S
WICHITA        MOSUNNY   69  58  67 SW5       30.05R
TOPEKA         MOSUNNY   74  66  76 MISG      30.02F
OLATHE         MOSUNNY   71  65  81 S7        30.06S

......TENNESSEE......

CITY           SKY/WX    TMP DP  RH WIND       PRES   REMARKS
MEMPHIS        PTSUNNY   82  67  60 CALM      30.08S
NASHVILLE      MOSUNNY   80  61  52 NE6       30.08R

......ARKANSAS.......

CITY           SKY/WX    TMP DP  RH WIND       PRES   REMARKS
FAYETTEVILLE   PTSUNNY   69  66  90 CALM      30.11R
FT SMITH       CLOUDY    70  65  84 CALM      30.08R
LITTLE ROCK    CLOUDY    73  65  75 CALM      30.07F

......OKLAHOMA.......

CITY           SKY/WX    TMP DP  RH WIND       PRES   REMARKS
TULSA          LGT RAIN  71  67  87 S5        30.07R
PONCA CITY     CLOUDY    70  61  73 S6        30.04S
MCALESTER      LGT RAIN  68  65  90 SE5       30.08R
OKLAHOMA CITY  CLOUDY    67  65  93 S6        30.05R

......IOWA............

CITY           SKY/WX    TMP DP  RH WIND       PRES   REMARKS
DES MOINES     MOSUNNY   74  63  68 S3        30.02F
QUAD CITIES    MOSUNNY   76  61  59 W10       30.06R

......ILLINOIS........

CITY           SKY/WX    TMP DP  RH WIND       PRES   REMARKS
QUINCY         MOSUNNY   75  64  68 W6        30.09R
CHICAGO        MOSUNNY   75  59  57 CALM      30.03R




USA.gov is the U.S. government's official web portal to all federal, state and local government web resources and services.